Regional Weather Roundup
Issued by NWS Northern Indiana

Home | Current Version | Previous Version | Text Only | Print | Product List | Glossary Off
Versions: 1 2 3 4 5 6 7 8 9 10 11 12 13 14 15 16 17 18 19 20 21 22 23 24 25 26 27 28 29 30 31 32 33 34 35 36 37 38 39 40 41 42 43 44 45 46 47 48 49 50

000
ASUS43 KIWX 271300
RWRIWX

KIWX WEATHER ROUNDUP
NATIONAL WEATHER SERVICE NORTHERN INDIANA
800 AM EST FRI FEB 27 2015

NOTE: "FAIR" INDICATES FEW OR NO CLOUDS BELOW 12,000 FEET WITH NO
SIGNIFICANT WEATHER AND/OR OBSTRUCTIONS TO VISIBILITY.

* THESE STATIONS ARE NOT UNDER NWS QUALITY CONTROL. THEY ALSO MAY NOT
  REPORT WEATHER SUCH AS PRECIPITATION OR FOG.

INZ001>027-271400-
NORTHERN INDIANA

CITY           SKY/WX    TMP DP  RH WIND       PRES   REMARKS
SOUTH BEND     MOCLDY    -6 -12  75 CALM      30.51R
ELKHART*       PTCLDY    -8 -15  71 CALM      30.50R HAZE
GOSHEN         CLEAR     -8 -13  78 CALM      30.49R
MONTICELLO*    CLEAR     -7 -10  84 W5        30.52R WCI -18
ANGOLA*        CLEAR    -15 -20  76 CALM      30.46R
FORT WAYNE     PTCLDY    -2  -6  83 W3        30.50R
PERU/GRISSOM   MOCLDY    -1  -6  80 W2        30.50R

$$
INZ028>050-271400-
CENTRAL INDIANA

CITY           SKY/WX    TMP DP  RH WIND       PRES   REMARKS
LAFAYETTE      CLEAR     -4  -8  83 SW3       30.55R
KOKOMO*        CLEAR      0  -6  78 W7        30.51R WCI -13
MUNCIE*        MOCLDY     1  -3  83 SW3       30.50R FOG
INDIANAPOLIS   PTCLDY     3  -3  76 NW3       30.51R

$$
MIZ043>046-050>051-056>058-064>065-071>073-077>080-271400-
SOUTHWEST LOWER MICHIGAN

CITY           SKY/WX    TMP DP  RH WIND       PRES   REMARKS
BATTLE CREEK   CLEAR     -8 -14  74 CALM      30.47R
BENTON HARBOR  CLOUDY    -5  -8  87 CALM      30.51R
COLDWATER*     PTCLDY   -14 -20  75 CALM      30.47R
HILLSDALE*     PTCLDY    -9 -15  74 CALM      30.44R
HOLLAND        CLOUDY     2  -9  60 S6        30.50R WCI  -9
GRAND RAPIDS   PTCLDY    -7 -14  71 CALM      30.48R
KALAMAZOO      CLEAR     -8 -12  83 SW3       30.49R
STURGIS*       CLEAR     -9 -13  84 CALM      30.47R
THREE RIVERS*  CLOUDY   -11 -16  77 CALM      30.49R

$$
OHZ001>008-015>018-024>025-271400-
NORTHWEST OHIO

CITY           SKY/WX    TMP DP  RH WIND       PRES   REMARKS
DEFIANCE       CLEAR     -8 -13  78 CALM      30.51R
FINDLAY        PTCLDY    -3  -8  79 W3        30.48R
TOLEDO EXPRESS CLEAR     -9 -13  83 CALM      30.49R
TOLEDO METCALF CLEAR     -4  -8  83 CALM      30.51R
LIMA           CLEAR     -3  -8  79 CALM      30.47R HAZE

$$
AND FOR LAKE MICHIGAN COASTAL AND OPEN LAKE BUOY OBSERVATIONS

STATION/POSITION TEMP    WIND        PRES    VSBY  WAVE
                 AIR SEA DIR/SP/G                  HT/PER
                 (F)     (DEG/KT/KT) (MB)    (MI)  (FT/S)
CALUMET HARBOR     5     270/  5/  6 1032.2R
MICHIGAN CITY      4     130/  2/  4   N/A
SAINT JOSEPH       4     120/  4/  6 1032.2F

$$
&&


USA.gov is the U.S. government's official web portal to all federal, state and local government web resources and services.